Wind_Speed
11 11 11 10 11 11 11 11 10 10 10 9 9 8 8 7 7 6 6 6 5 5 5 5 4 4 4 5 4 3 3 2 1 1 1 0 0 1 2 2 3 3 4
12 12 12 12 12 12 12 13 12 12 11 11 10 10 9 9 9 8 7 7 6 6 6 6 6 5 5 5 5 5 4 4 3 2 2 1 1 1 1 1 2 3 3
14 13 13 13 13 13 13 14 13 13 13 13 12 12 11 10 10 9 9 8 8 7 7 7 7 6 6 6 6 6 5 5 4 4 3 2 2 1 1 0 1 2 2
16 15 15 15 14 14 14 14 15 14 14 14 13 13 13 12 12 11 11 10 9 9 8 8 8 8 8 7 7 6 6 6 5 5 4 4 3 2 2 1 1 1 2
17 17 16 17 16 16 16 15 15 15 15 15 15 14 14 14 13 13 12 12 12 11 10 10 9 9 9 8 8 8 7 7 6 6 5 5 4 3 2 2 1 0 1
19 19 18 18 18 18 17 17 16 16 16 16 16 15 15 14 14 14 14 14 13 13 12 12 12 11 10 10 10 9 9 9 8 7 7 6 6 5 4 3 2 1 1
20 20 20 19 19 19 18 18 18 17 16 17 17 16 16 16 15 15 16 16 15 15 15 14 14 13 13 12 11 11 10 10 10 9 8 7 6 6 5 5 3 3 3
22 22 22 21 21 20 20 20 20 19 18 18 18 18 18 17 17 17 17 17 17 17 16 16 16 15 15 14 13 13 12 11 11 11 10 9 8 7 7 6 5 4 4
25 24 24 23 23 22 22 21 21 21 21 20 20 20 19 19 19 19 18 18 18 18 18 18 18 17 16 16 15 14 14 13 13 12 12 11 11 10 9 8 7 6 5
27 26 26 26 25 25 24 23 23 23 23 22 21 22 21 21 21 21 20 20 20 19 19 19 19 20 19 18 17 16 16 16 15 14 14 13 12 12 11 10 9 8 7
29 29 28 28 27 27 27 27 26 26 25 25 24 24 24 24 23 23 23 22 22 22 22 21 21 22 22 21 20 19 18 18 17 16 16 16 15 14 13 12 11 10 9
32 31 31 31 30 30 30 30 29 28 28 28 27 26 26 26 26 25 25 25 25 25 25 24 24 23 24 24 23 22 21 20 19 18 18 17 17 16 15 14 13 12 11
34 34 34 34 33 33 33 32 32 31 31 30 29 29 29 28 28 28 28 27 27 27 27 27 27 26 26 26 26 25 24 23 22 20 20 19 19 18 17 17 16 15 14
36 36 36 37 36 35 35 35 34 34 34 32 31 31 31 31 31 31 30 30 29 30 30 30 29 29 29 28 28 28 27 26 24 23 22 21 21 20 19 19 18 17 16
38 38 39 39 38 38 38 37 37 36 36 36 35 35 34 34 34 33 33 33 32 32 32 32 32 31 31 30 30 30 29 28 27 26 25 23 23 22 21 21 20 19 18
40 40 40 41 41 40 40 40 40 39 39 39 38 38 37 37 36 36 36 36 35 35 34 34 34 34 33 32 32 32 31 31 30 28 27 26 25 24 24 23 22 21 20
41 42 42 42 43 43 42 42 42 42 41 41 40 40 41 40 39 39 38 38 38 38 37 36 36 37 36 35 35 34 34 33 32 31 30 29 28 27 26 25 24 23 22
43 43 43 44 45 45 45 45 44 44 44 43 43 43 43 43 42 41 40 40 41 40 40 39 39 39 39 38 38 37 37 36 35 34 33 32 31 30 29 28 27 26 25
42 43 44 44 45 46 47 46 46 45 45 45 45 45 45 44 44 43 42 42 42 43 43 42 41 41 41 40 40 39 39 38 38 37 37 35 34 33 31 30 30 29 28
42 43 43 44 44 46 47 47 47 47 46 45 46 46 46 45 45 45 44 43 43 44 45 44 43 43 43 43 42 42 41 40 40 40 39 38 37 36 34 33 32 31 30
41 42 43 43 44 45 47 48 48 48 47 47 47 47 46 46 46 47 46 45 44 44 45 46 45 45 45 45 44 44 43 43 42 42 41 40 38 38 37 35 34 33 33
41 42 43 43 44 45 46 48 49 49 49 48 47 47 47 47 48 48 47 46 46 45 46 47 47 47 46 47 47 46 46 45 45 45 44 43 41 40 39 38 36 36 35
40 41 42 43 45 45 46 48 49 49 49 49 48 48 49 49 49 49 48 47 48 47 47 47 48 48 48 48 49 49 48 48 47 47 47 46 44 43 42 41 40 39 37
39 40 41 43 44 45 46 47 47 48 49 49 49 49 50 50 50 50 50 49 49 48 48 48 49 50 50 49 50 50 50 49 49 49 49 48 47 46 45 44 43 41 40
38 39 40 42 43 44 45 47 47 48 50 49 50 51 51 51 50 50 51 51 51 50 49 49 50 50 50 50 51 51 51 51 51 51 51 50 50 48 47 46 45 44 42
38 39 40 42 42 43 44 46 47 48 50 50 50 51 51 52 51 52 51 52 52 51 50 50 50 50 51 51 51 51 52 52 53 53 53 52 52 50 49 48 47 46 44
Wind_Direction
230 231 232 230 229 228 227 226 227 225 224 224 221 222 222 221 221 222 222 223 223 223 225 224 226 230 223 219 219 228 233 242 253 273 278 293 29 57 61 60 55 52 49
237 236 237 237 236 233 231 231 232 233 230 230 231 231 230 228 226 227 227 229 231 229 230 229 231 232 229 225 224 228 232 243 251 249 243 237 218 169 96 65 53 51 46
240 240 241 242 241 239 238 237 235 235 234 234 235 235 235 234 233 233 233 234 237 236 235 233 231 232 232 230 228 231 236 238 243 243 237 232 225 207 190 122 59 43 41
243 244 245 245 246 245 243 242 240 239 237 236 238 239 239 239 238 238 238 238 240 240 238 236 233 235 236 232 230 231 234 239 243 245 239 232 226 222 215 194 116 48 38
242 244 246 247 247 246 245 243 243 242 240 238 239 241 243 244 243 242 240 240 241 242 240 237 236 237 239 236 235 234 234 240 245 246 242 235 228 224 221 214 183 136 23
244 245 246 247 248 246 245 245 243 243 242 240 239 240 242 244 245 245 243 242 242 243 243 240 238 239 240 240 239 239 239 241 244 245 244 240 237 233 228 228 222 247 298
246 245 245 246 247 247 246 247 246 242 242 243 242 241 241 243 245 246 246 245 244 244 243 242 241 241 242 241 242 242 243 243 244 243 241 240 240 236 234 237 242 251 263
247 247 246 245 247 248 248 248 249 245 243 244 246 245 244 244 246 245 248 247 246 245 243 243 243 242 242 242 244 244 244 246 244 241 240 239 238 238 237 241 243 248 257
247 247 248 247 247 248 249 250 251 250 246 246 247 248 247 247 248 248 248 249 248 246 244 244 244 243 245 245 244 245 245 246 246 243 241 238 239 239 241 244 246 247 254
248 248 248 249 248 248 250 251 252 252 250 248 249 249 249 248 248 248 248 249 249 247 245 245 245 245 245 245 245 245 245 246 247 245 243 241 240 240 242 246 249 250 251
249 249 249 249 250 248 250 251 252 251 251 250 250 250 250 250 249 248 249 249 249 249 247 246 245 246 246 246 245 245 245 246 246 246 244 243 241 242 243 247 251 252 252
250 249 249 249 250 249 250 251 252 252 250 250 249 250 251 250 250 250 250 250 250 250 250 249 247 247 247 246 245 244 245 246 245 246 244 244 243 243 244 246 251 253 253
251 249 249 250 249 249 250 251 251 252 251 252 251 250 251 251 251 251 250 251 251 251 251 251 249 248 247 247 246 244 244 245 245 245 244 244 244 245 246 246 249 251 253
252 250 249 250 251 251 251 252 252 252 252 252 253 252 251 251 252 251 251 250 251 251 251 251 250 249 247 247 246 245 244 244 245 245 245 245 245 245 247 247 249 251 251
252 251 250 251 251 251 252 252 253 253 253 253 254 253 252 252 252 252 251 251 251 251 251 251 250 249 248 247 246 245 244 244 243 244 245 246 246 246 246 248 248 249 250
252 251 251 251 251 252 252 252 253 253 254 254 255 254 253 252 251 251 251 252 252 252 252 251 250 250 248 247 246 245 244 243 243 243 243 245 246 246 246 248 249 248 250
252 253 252 252 252 252 253 253 253 254 254 255 255 255 254 254 253 252 252 253 253 252 252 251 251 250 249 247 246 245 245 243 243 242 242 243 245 246 247 247 248 249 249
253 253 253 253 252 252 252 253 253 253 254 255 255 256 255 255 255 254 254 254 253 252 252 251 250 250 249 247 246 245 244 243 243 243 243 243 245 246 248 248 248 248 249
254 254 254 254 253 253 252 252 253 253 253 254 255 256 256 256 255 255 255 254 254 253 252 251 250 249 248 247 246 245 244 243 243 243 243 244 245 246 248 248 247 248 249
255 255 256 256 255 253 253 252 252 253 254 254 255 255 256 257 256 254 254 254 254 254 253 252 251 250 249 247 246 245 244 244 243 243 243 243 244 245 247 248 247 247 248
256 256 256 257 257 254 253 252 252 253 253 255 255 255 255 256 256 255 254 254 254 254 253 252 251 251 250 248 246 245 244 244 243 242 242 242 243 244 245 247 247 247 248
258 257 257 257 258 256 254 253 253 253 253 254 256 255 255 256 256 255 255 254 254 253 254 253 252 251 250 249 248 246 245 244 244 243 242 243 243 244 244 246 247 247 247
261 260 258 258 258 256 255 255 254 253 253 254 255 255 255 255 255 255 254 254 254 254 254 254 253 252 251 250 249 247 246 245 244 242 242 243 243 244 244 245 246 247 247
261 261 259 259 259 258 257 255 255 255 254 254 255 255 255 255 255 254 254 254 254 254 255 254 253 253 252 251 249 248 247 246 245 243 242 242 243 244 244 245 246 246 247
263 262 261 260 261 260 258 256 257 257 255 255 254 253 254 255 255 255 255 254 254 254 254 254 253 253 252 251 250 249 247 246 246 245 244 243 243 243 244 244 245 246 246
265 264 263 261 263 262 259 257 258 258 257 257 255 254 255 255 256 256 256 256 255 253 252 253 252 252 253 252 251 249 248 247 246 245 244 244 244 244 244 244 245 246 246
Height
5845 5846 5846 5847 5847 5847 5847 5848 5848 5849 5849 5850 5850 5851 5851 5852 5852 5852 5853 5853 5853 5853 5853 5853 5853 5853 5853 5854 5854 5854 5854 5853 5853 5853 5852 5852 5852 5851 5851 5850 5850 5849 5848
5843 5843 5844 5844 5845 5845 5846 5846 5846 5847 5847 5848 5849 5849 5850 5850 5850 5851 5851 5851 5852 5852 5852 5852 5852 5852 5852 5853 5853 5853 5853 5853 5853 5852 5852 5852 5851 5851 5850 5850 5850 5849 5848
5841 5841 5842 5842 5843 5843 5844 5844 5844 5845 5845 5846 5847 5847 5848 5848 5849 5849 5850 5850 5850 5850 5851 5851 5851 5851 5851 5852 5852 5852 5852 5852 5852 5852 5851 5851 5851 5850 5850 5850 5850 5849 5848
5838 5838 5839 5840 5840 5841 5841 5842 5842 5843 5843 5844 5844 5845 5846 5846 5847 5847 5847 5848 5848 5849 5849 5849 5849 5850 5850 5850 5850 5851 5851 5851 5851 5851 5851 5850 5850 5850 5850 5849 5849 5849 5848
5834 5835 5836 5836 5837 5838 5838 5839 5839 5840 5840 5841 5841 5842 5843 5843 5844 5845 5845 5846 5846 5847 5847 5847 5848 5848 5848 5849 5849 5849 5849 5850 5850 5850 5850 5850 5849 5849 5849 5849 5849 5848 5848
5830 5831 5832 5833 5833 5834 5835 5835 5836 5837 5837 5838 5838 5839 5840 5840 5841 5842 5843 5843 5844 5844 5845 5845 5846 5846 5846 5847 5847 5847 5848 5848 5848 5848 5848 5848 5848 5848 5848 5848 5848 5848 5847
5826 5827 5828 5828 5829 5830 5831 5832 5832 5833 5834 5834 5835 5836 5836 5837 5838 5839 5839 5840 5841 5841 5842 5842 5843 5843 5844 5844 5845 5845 5845 5846 5846 5847 5847 5847 5847 5847 5847 5847 5847 5847 5847
5821 5822 5823 5824 5825 5826 5827 5827 5828 5829 5830 5831 5831 5832 5833 5833 5834 5835 5836 5836 5837 5838 5839 5839 5840 5841 5841 5842 5842 5843 5843 5844 5844 5845 5845 5845 5845 5846 5846 5846 5846 5846 5846
5816 5817 5818 5819 5820 5821 5822 5823 5824 5824 5825 5826 5827 5828 5829 5829 5830 5831 5832 5832 5833 5834 5835 5836 5837 5837 5838 5839 5839 5840 5840 5841 5842 5842 5843 5843 5843 5844 5844 5844 5844 5844 5844
5810 5811 5812 5813 5814 5815 5817 5818 5819 5820 5820 5821 5822 5823 5824 5825 5825 5826 5827 5828 5829 5830 5831 5832 5833 5833 5834 5835 5836 5837 5837 5838 5839 5839 5840 5841 5841 5841 5842 5842 5842 5843 5843
5803 5805 5806 5807 5808 5810 5811 5812 5813 5814 5815 5816 5817 5818 5819 5820 5820 5821 5822 5823 5824 5825 5826 5827 5828 5829 5830 5831 5832 5833 5834 5834 5835 5836 5837 5837 5838 5839 5839 5840 5840 5840 5841
5796 5797 5799 5800 5802 5803 5804 5805 5807 5808 5809 5810 5810 5811 5813 5814 5815 5816 5817 5817 5818 5819 5820 5821 5822 5823 5825 5826 5827 5828 5829 5830 5831 5832 5833 5834 5835 5836 5836 5837 5838 5838 5838
5787 5789 5791 5792 5794 5796 5797 5798 5799 5801 5802 5803 5804 5805 5806 5807 5808 5809 5810 5811 5812 5813 5814 5815 5816 5817 5819 5820 5821 5823 5824 5826 5827 5828 5829 5830 5831 5832 5833 5834 5834 5835 5835
5778 5780 5782 5783 5785 5787 5789 5790 5791 5793 5794 5795 5796 5797 5798 5799 5801 5802 5803 5804 5805 5806 5807 5808 5809 5810 5812 5813 5815 5817 5818 5820 5822 5823 5824 5826 5827 5828 5828 5830 5831 5831 5832
5767 5770 5772 5774 5776 5778 5780 5781 5783 5784 5786 5787 5788 5789 5790 5791 5793 5794 5795 5796 5797 5798 5799 5800 5802 5803 5805 5806 5808 5810 5812 5814 5816 5818 5819 5821 5822 5823 5824 5825 5826 5827 5828
5757 5759 5761 5763 5765 5768 5770 5772 5774 5775 5776 5778 5779 5780 5781 5783 5784 5785 5787 5788 5789 5790 5791 5792 5793 5795 5796 5798 5800 5802 5804 5806 5809 5811 5813 5815 5816 5818 5819 5820 5821 5822 5823
5745 5747 5750 5752 5754 5757 5759 5761 5763 5765 5766 5768 5769 5770 5771 5773 5774 5776 5777 5779 5780 5781 5782 5783 5784 5786 5787 5789 5792 5794 5796 5798 5801 5804 5806 5808 5810 5812 5813 5815 5816 5817 5818
5734 5736 5738 5740 5742 5745 5747 5750 5752 5754 5755 5757 5758 5760 5761 5762 5763 5765 5766 5768 5769 5771 5772 5773 5775 5776 5778 5780 5782 5785 5787 5790 5793 5795 5798 5801 5803 5805 5807 5808 5810 5811 5813
5722 5724 5726 5728 5730 5733 5735 5738 5740 5742 5744 5745 5747 5748 5749 5751 5752 5753 5755 5757 5758 5760 5761 5763 5764 5766 5768 5770 5772 5775 5778 5781 5783 5786 5789 5792 5795 5797 5799 5801 5803 5805 5806
5711 5713 5714 5716 5718 5720 5723 5725 5727 5729 5731 5733 5735 5736 5737 5739 5740 5742 5743 5745 5747 5748 5750 5751 5753 5755 5757 5759 5762 5765 5768 5771 5774 5777 5780 5783 5786 5789 5791 5793 5796 5798 5800
5700 5701 5703 5704 5706 5708 5710 5712 5714 5717 5719 5721 5722 5724 5725 5726 5728 5729 5731 5733 5734 5736 5738 5739 5741 5743 5746 5748 5751 5754 5757 5760 5763 5766 5770 5773 5776 5779 5782 5785 5787 5790 5792
5688 5689 5691 5692 5694 5696 5697 5699 5702 5704 5706 5708 5710 5711 5713 5714 5715 5717 5718 5720 5722 5724 5725 5727 5729 5731 5734 5736 5739 5742 5746 5750 5752 5756 5759 5763 5766 5769 5773 5776 5779 5781 5783
5677 5678 5679 5680 5682 5683 5684 5686 5688 5690 5692 5694 5696 5698 5700 5701 5702 5704 5706 5707 5710 5711 5713 5715 5716 5719 5722 5724 5727 5730 5734 5738 5741 5745 5748 5752 5755 5759 5762 5766 5769 5772 5774
5666 5666 5667 5668 5669 5670 5671 5673 5675 5677 5679 5681 5683 5685 5686 5688 5689 5691 5692 5694 5696 5699 5700 5702 5703 5706 5708 5711 5714 5717 5721 5725 5729 5733 5737 5741 5744 5748 5751 5755 5759 5762 5765
5656 5656 5656 5657 5657 5658 5659 5660 5661 5663 5665 5667 5668 5670 5672 5674 5675 5677 5678 5680 5682 5685 5687 5689 5691 5692 5695 5698 5701 5704 5708 5711 5715 5720 5725 5729 5732 5736 5740 5744 5748 5751 5754
5645 5645 5645 5645 5645 5645 5646 5647 5648 5650 5651 5653 5655 5656 5658 5660 5661 5663 5665 5666 5668 5671 5673 5675 5677 5679 5681 5684 5687 5690 5694 5698 5702 5706 5711 5716 5720 5724 5728 5732 5736 5740 5743